KE6RLG Weather Reports


time (UTC)temp
C
wind
direction
speed
KPH
gust
KPH
rain 1hr
cm
rain 24hr
cm
rain mn
cm
humidity
%
barometer
mb
20260507062024 13 0.0 0.0 0.00 0.00 0.00 89 1016.7
20260507061525 13 0.0 0.0 0.00 0.00 0.00 89 1016.7
20260507061025 13 0.0 0.0 0.00 0.00 0.00 89 1016.7
20260507060545 13 0.0 0.0 0.00 0.00 0.00 89 1016.8
20260507060045 13 0.0 0.0 0.00 0.00 0.00 89 1016.8
20260507055605 13 179 0.0 1.6 0.00 0.00 0.00 89 1016.8
20260507055025 13 48 0.0 0.0 0.00 0.00 0.00 89 1016.8
20260507054605 13 344 0.0 1.6 0.00 0.00 0.00 89 1016.7
20260507054106 13 287 1.6 4.8 0.00 0.00 0.00 89 1016.7
20260507053522 14 300 1.6 9.7 0.00 0.00 0.00 89 1016.6
20260507053038 14 305 3.2 12.9 0.00 0.00 0.00 89 1016.6
20260507052518 14 299 3.2 11.3 0.00 0.00 0.00 89 1016.6
20260507052018 14 315 3.2 12.9 0.00 0.00 0.00 89 1016.6
20260507051517 14 304 6.4 12.9 0.00 0.00 0.00 89 1016.6
20260507051018 14 304 6.4 12.9 0.00 0.00 0.00 89 1016.5
20260507050518 14 308 6.4 14.5 0.00 0.00 0.00 88 1016.5
20260507050017 14 307 6.4 12.9 0.00 0.00 0.00 88 1016.5
20260507045517 14 307 6.4 11.3 0.00 0.00 0.00 88 1016.5
20260507045018 14 302 6.4 14.5 0.00 0.00 0.00 88 1016.5
20260507044518 14 303 8.0 17.7 0.00 0.00 0.00 88 1016.4
20260507044038 14 305 8.0 16.1 0.00 0.00 0.00 88 1016.3
20260507043538 14 307 6.4 14.5 0.00 0.00 0.00 88 1016.3
20260507043018 14 308 8.0 14.5 0.00 0.00 0.00 88 1016.3
20260507042518 14 302 8.0 14.5 0.00 0.00 0.00 88 1016.3
20260507042038 14 306 6.4 14.5 0.00 0.00 0.00 88 1016.4
20260507041518 14 307 9.7 16.1 0.00 0.00 0.00 88 1016.3
20260507041019 14 307 9.7 17.7 0.00 0.00 0.00 88 1016.3
20260507040518 14 307 8.0 17.7 0.00 0.00 0.00 88 1016.3
20260507040039 14 309 6.4 14.5 0.00 0.00 0.00 88 1016.3
20260507035539 14 305 8.0 14.5 0.00 0.00 0.00 88 1016.2
20260507035016 14 313 6.4 14.5 0.00 0.00 0.00 88 1016.2
20260507034519 14 304 8.0 14.5 0.00 0.00 0.00 88 1016.1
20260507034019 14 306 9.7 16.1 0.00 0.00 0.00 88 1016.0
20260507033519 14 309 6.4 14.5 0.00 0.00 0.00 88 1016.0
20260507033019 14 307 8.0 16.1 0.00 0.00 0.00 87 1016.0
20260507032519 14 307 9.7 17.7 0.00 0.00 0.00 87 1016.0
20260507032019 14 303 9.7 14.5 0.00 0.00 0.00 87 1015.9
20260507031519 14 306 8.0 16.1 0.00 0.00 0.00 87 1015.8
20260507031019 14 302 6.4 17.7 0.00 0.00 0.00 87 1015.8
20260507030539 14 306 6.4 16.1 0.00 0.00 0.00 87 1015.8
20260507030020 14 306 6.4 12.9 0.00 0.00 0.00 86 1015.7
20260507025516 15 304 6.4 12.9 0.00 0.00 0.00 86 1015.7
20260507025017 15 303 8.0 14.5 0.00 0.00 0.00 86 1015.7
20260507024516 15 301 6.4 14.5 0.00 0.00 0.00 85 1015.7
20260507024017 15 303 6.4 17.7 0.00 0.00 0.00 85 1015.7
20260507023519 15 302 6.4 14.5 0.00 0.00 0.00 85 1015.7
20260507023020 15 296 6.4 14.5 0.00 0.00 0.00 84 1015.6
20260507022520 15 305 4.8 14.5 0.00 0.00 0.00 84 1015.6
20260507022020 15 293 6.4 17.7 0.00 0.00 0.00 83 1015.5
20260507021520 15 301 6.4 16.1 0.00 0.00 0.00 83 1015.5
20260507021017 15 305 6.4 17.7 0.00 0.00 0.00 82 1015.5
20260507020517 15 313 6.4 16.1 0.00 0.00 0.00 82 1015.5
20260507020017 15 301 6.4 14.5 0.00 0.00 0.00 81 1015.5
20260507015517 15 303 8.0 17.7 0.00 0.00 0.00 81 1015.5
20260507015037 16 305 8.0 17.7 0.00 0.00 0.00 80 1015.5
20260507014517 16 302 6.4 19.3 0.00 0.00 0.00 80 1015.5
20260507014017 16 304 6.4 14.5 0.00 0.00 0.00 80 1015.5
20260507013521 16 305 8.0 14.5 0.00 0.00 0.00 80 1015.5
20260507013020 16 306 9.7 20.9 0.00 0.00 0.00 79 1015.4
20260507012540 16 307 6.4 14.5 0.00 0.00 0.00 78 1015.4
20260507012018 16 307 8.0 16.1 0.00 0.00 0.00 78 1015.4
20260507011518 16 305 9.7 17.7 0.00 0.00 0.00 78 1015.4
20260507011018 16 306 8.0 19.3 0.00 0.00 0.00 77 1015.3
20260507010518 16 312 6.4 14.5 0.00 0.00 0.00 76 1015.4
20260507010018 16 296 6.4 16.1 0.00 0.00 0.00 77 1015.4
20260507005518 16 288 8.0 17.7 0.00 0.00 0.00 76 1015.3
20260507005018 16 300 8.0 17.7 0.00 0.00 0.00 74 1015.3
20260507004518 17 302 9.7 19.3 0.00 0.00 0.00 71 1015.4
20260507004018 17 291 6.4 16.1 0.00 0.00 0.00 69 1015.4
20260507003518 17 314 6.4 12.9 0.00 0.00 0.00 68 1015.5
20260507003018 17 296 6.4 16.1 0.00 0.00 0.00 68 1015.4
20260507002518 17 308 6.4 14.5 0.00 0.00 0.00 66 1015.4
20260507002018 17 311 8.0 17.7 0.00 0.00 0.00 66 1015.6
20260507001518 17 312 4.8 12.9 0.00 0.00 0.00 68 1015.5
20260507001019 17 304 6.4 16.1 0.00 0.00 0.00 70 1015.6
20260507000518 17 299 6.4 17.7 0.00 0.00 0.00 71 1015.6
20260507000039 17 306 6.4 19.3 0.00 0.00 0.00 72 1015.5
20260506235519 17 305 8.0 14.5 0.00 0.00 0.00 72 1015.5
20260506235019 17 323 4.8 11.3 0.00 0.00 0.00 73 1015.6
20260506234519 17 287 4.8 16.1 0.00 0.00 0.00 76 1015.6
20260506234019 17 292 8.0 16.1 0.00 0.00 0.00 73 1015.6
20260506233519 17 300 6.4 16.1 0.00 0.00 0.00 72 1015.6
20260506233019 17 303 6.4 14.5 0.00 0.00 0.00 72 1015.7
20260506232519 17 299 6.4 17.7 0.00 0.00 0.00 73 1015.7
20260506232019 17 311 8.0 17.7 0.00 0.00 0.00 72 1015.7
20260506231520 17 306 8.0 17.7 0.00 0.00 0.00 72 1015.8
20260506231019 17 292 8.0 17.7 0.00 0.00 0.00 73 1015.9
20260506230520 17 292 8.0 16.1 0.00 0.00 0.00 73 1015.9
20260506230017 17 299 9.7 17.7 0.00 0.00 0.00 72 1015.9
20260506225537 17 299 6.4 24.1 0.00 0.00 0.00 73 1015.9
20260506225037 18 292 8.0 24.1 0.00 0.00 0.00 72 1016.0
20260506224517 18 298 8.0 14.5 0.00 0.00 0.00 71 1016.1
20260506224017 18 302 4.8 14.5 0.00 0.00 0.00 67 1016.2
20260506223521 18 315 4.8 12.9 0.00 0.00 0.00 67 1016.2
20260506223020 18 303 3.2 9.7 0.00 0.00 0.00 68 1016.3
20260506222520 18 305 4.8 12.9 0.00 0.00 0.00 70 1016.3
20260506222020 18 311 6.4 14.5 0.00 0.00 0.00 70 1016.4
20260506221517 18 314 6.4 12.9 0.00 0.00 0.00 69 1016.5
20260506221017 18 294 6.4 12.9 0.00 0.00 0.00 69 1016.6
20260506220557 18 301 6.4 12.9 0.00 0.00 0.00 69 1016.7
20260506220038 18 290 6.4 16.1 0.00 0.00 0.00 67 1016.8
20260506215538 18 273 3.2 9.7 0.00 0.00 0.00 68 1016.9
20260506215017 18 289 6.4 14.5 0.00 0.00 0.00 67 1016.9
20260506214517 18 250 4.8 11.3 0.00 0.00 0.00 66 1016.9
20260506214017 18 249 3.2 11.3 0.00 0.00 0.00 67 1017.0
20260506213521 18 263 3.2 11.3 0.00 0.00 0.00 67 1017.0
20260506213020 18 254 3.2 8.0 0.00 0.00 0.00 68 1017.1
20260506212520 18 264 4.8 11.3 0.00 0.00 0.00 69 1017.1
20260506212021 18 275 4.8 12.9 0.00 0.00 0.00 70 1017.1
20260506211518 18 278 4.8 11.3 0.00 0.00 0.00 69 1017.2
20260506211038 18 286 6.4 14.5 0.00 0.00 0.00 69 1017.2
20260506210518 18 228 3.2 8.0 0.00 0.00 0.00 68 1017.2
20260506210018 17 277 4.8 9.7 0.00 0.00 0.00 70 1017.3
20260506205518 17 293 4.8 14.5 0.00 0.00 0.00 69 1017.3
20260506205018 17 282 4.8 14.5 0.00 0.00 0.00 70 1017.3
20260506204521 17 288 4.8 11.3 0.00 0.00 0.00 69 1017.3
20260506204021 17 276 6.4 14.5 0.00 0.00 0.00 70 1017.3
20260506203519 17 313 6.4 12.9 0.00 0.00 0.00 69 1017.4
20260506203059 18 302 6.4 14.5 0.00 0.00 0.00 68 1017.4
20260506202519 18 260 4.8 12.9 0.00 0.00 0.00 66 1017.5
20260506202039 18 291 3.2 11.3 0.00 0.00 0.00 67 1017.6
20260506201518 18 306 6.4 12.9 0.00 0.00 0.00 66 1017.6
20260506201019 18 286 4.8 12.9 0.00 0.00 0.00 65 1017.6
20260506200519 18 287 3.2 16.1 0.00 0.00 0.00 66 1017.7
20260506200019 18 315 3.2 9.7 0.00 0.00 0.00 65 1017.7
20260506195519 19 266 4.8 9.7 0.00 0.00 0.00 63 1017.8
20260506195019 18 279 3.2 9.7 0.00 0.00 0.00 64 1017.8
20260506194519 18 238 4.8 11.3 0.00 0.00 0.00 63 1017.9
20260506194019 18 315 1.6 8.0 0.00 0.00 0.00 64 1017.9
20260506193519 18 202 3.2 9.7 0.00 0.00 0.00 64 1017.9
20260506193019 18 259 3.2 8.0 0.00 0.00 0.00 65 1018.0
20260506192520 18 247 3.2 9.7 0.00 0.00 0.00 65 1018.0
20260506192019 18 264 3.2 9.7 0.00 0.00 0.00 63 1018.0
20260506191519 18 274 3.2 8.0 0.00 0.00 0.00 63 1018.1
20260506191040 18 195 3.2 6.4 0.00 0.00 0.00 64 1018.1
20260506190517 18 197 3.2 12.9 0.00 0.00 0.00 66 1018.2
20260506190020 17 166 4.8 14.5 0.00 0.00 0.00 68 1018.2
20260506185537 17 162 4.8 11.3 0.00 0.00 0.00 68 1018.2
20260506185017 18 180 4.8 12.9 0.00 0.00 0.00 66 1018.2
20260506184517 18 135 3.2 8.0 0.00 0.00 0.00 66 1018.2
20260506184037 18 153 3.2 9.7 0.00 0.00 0.00 66 1018.2
20260506183540 18 143 4.8 9.7 0.00 0.00 0.00 66 1018.2
20260506183020 18 145 3.2 9.7 0.00 0.00 0.00 66 1018.2
20260506182540 18 125 4.8 9.7 0.00 0.00 0.00 63 1018.3
20260506182020 18 164 1.6 8.0 0.00 0.00 0.00 63 1018.3
20260506181538 18 133 3.2 8.0 0.00 0.00 0.00 64 1018.3
20260506181037 18 132 3.2 8.0 0.00 0.00 0.00 63 1018.4
20260506180517 18 127 3.2 8.0 0.00 0.00 0.00 62 1018.4
20260506180058 18 122 3.2 8.0 0.00 0.00 0.00 63 1018.4
20260506175520 18 162 3.2 8.0 0.00 0.00 0.00 64 1018.4
20260506175020 18 169 4.8 9.7 0.00 0.00 0.00 60 1018.3
20260506174521 18 138 1.6 4.8 0.00 0.00 0.00 61 1018.3
20260506174020 18 157 3.2 4.8 0.00 0.00 0.00 61 1018.3
20260506173521 18 180 1.6 6.4 0.00 0.00 0.00 63 1018.3
20260506173021 18 208 3.2 8.0 0.00 0.00 0.00 61 1018.3
20260506172521 18 101 3.2 6.4 0.00 0.00 0.00 59 1018.3
20260506172018 18 118 1.6 11.3 0.00 0.00 0.00 58 1018.2
20260506171518 18 110 1.6 9.7 0.00 0.00 0.00 61 1018.2
20260506171018 18 197 1.6 6.4 0.00 0.00 0.00 62 1018.2
20260506170538 18 184 1.6 8.0 0.00 0.00 0.00 63 1018.2
20260506170018 18 188 3.2 6.4 0.00 0.00 0.00 61 1018.2
20260506165521 18 119 1.6 8.0 0.00 0.00 0.00 61 1018.1
20260506165021 18 95 3.2 6.4 0.00 0.00 0.00 63 1018.1
20260506164518 18 108 3.2 6.4 0.00 0.00 0.00 62 1018.1
20260506164018 18 131 1.6 4.8 0.00 0.00 0.00 64 1018.1
20260506163518 18 97 3.2 9.7 0.00 0.00 0.00 64 1018.1
20260506163019 18 96 3.2 9.7 0.00 0.00 0.00 61 1018.1
20260506162519 18 98 1.6 6.4 0.00 0.00 0.00 62 1018.1
20260506162018 18 104 1.6 8.0 0.00 0.00 0.00 61 1018.1
20260506161518 18 108 1.6 6.4 0.00 0.00 0.00 61 1018.0
20260506161038 18 96 1.6 6.4 0.00 0.00 0.00 61 1018.0
20260506160519 18 92 1.6 6.4 0.00 0.00 0.00 60 1018.1
20260506160019 18 72 0.0 6.4 0.00 0.00 0.00 62 1018.1
20260506155519 17 83 1.6 6.4 0.00 0.00 0.00 64 1018.1
20260506155019 17 89 1.6 8.0 0.00 0.00 0.00 66 1018.1
20260506154519 17 97 4.8 9.7 0.00 0.00 0.00 63 1018.0
20260506154040 17 100 1.6 6.4 0.00 0.00 0.00 63 1018.0
20260506153519 17 99 3.2 8.0 0.00 0.00 0.00 62 1018.0
20260506153020 17 92 1.6 8.0 0.00 0.00 0.00 63 1018.0
20260506152519 17 92 1.6 8.0 0.00 0.00 0.00 64 1018.0
20260506152019 16 101 1.6 6.4 0.00 0.00 0.00 66 1018.0
20260506151519 16 98 3.2 8.0 0.00 0.00 0.00 67 1018.0
20260506151020 16 108 4.8 9.7 0.00 0.00 0.00 66 1017.9
20260506150517 16 101 3.2 9.7 0.00 0.00 0.00 67 1018.0
20260506150016 16 107 4.8 9.7 0.00 0.00 0.00 66 1017.9
20260506145517 16 99 3.2 8.0 0.00 0.00 0.00 66 1017.9
20260506145016 16 108 3.2 9.7 0.00 0.00 0.00 66 1017.9
20260506144537 16 103 3.2 8.0 0.00 0.00 0.00 66 1017.9
20260506144017 17 96 3.2 6.4 0.00 0.00 0.00 66 1017.8
20260506143517 17 106 3.2 9.7 0.00 0.00 0.00 64 1017.7
20260506143020 17 103 1.6 6.4 0.00 0.00 0.00 67 1017.7
20260506142520 16 115 0.0 3.2 0.00 0.00 0.00 81 1017.8
20260506142020 15 0.0 0.0 0.00 0.00 0.00 87 1017.8
20260506141520 15 0.0 0.0 0.00 0.00 0.00 88 1017.7
20260506141020 14 179 0.0 0.0 0.00 0.00 0.00 88 1017.7
20260506140517 13 0.0 0.0 0.00 0.00 0.00 89 1017.7
20260506140023 12 0.0 0.0 0.00 0.00 0.00 89 1017.7
20260506135544 12 0.0 0.0 0.00 0.00 0.00 89 1017.7
20260506135024 11 0.0 0.0 0.00 0.00 0.00 89 1017.6
20260506134544 11 0.0 0.0 0.00 0.00 0.00 89 1017.6
20260506134023 11 0.0 0.0 0.00 0.00 0.00 89 1017.5
20260506133524 11 0.0 0.0 0.00 0.00 0.00 88 1017.5
20260506133024 11 0.0 0.0 0.00 0.00 0.00 88 1017.5
20260506132524 11 0.0 0.0 0.00 0.00 0.00 88 1017.5
20260506132024 10 0.0 0.0 0.00 0.00 0.00 88 1017.5
20260506131605 10 0.0 0.0 0.00 0.00 0.00 88 1017.4
20260506131024 11 94 0.0 0.0 0.00 0.00 0.00 88 1017.3
20260506130524 11 0.0 0.0 0.00 0.00 0.00 88 1017.2
20260506130044 11 265 0.0 0.0 0.00 0.00 0.00 88 1017.2
20260506125524 10 0.0 0.0 0.00 0.00 0.00 87 1017.1
20260506125024 10 215 0.0 0.0 0.00 0.00 0.00 87 1017.1
20260506124524 10 0.0 0.0 0.00 0.00 0.00 87 1017.0
20260506124024 10 0.0 0.0 0.00 0.00 0.00 87 1017.0
20260506123525 11 0.0 0.0 0.00 0.00 0.00 87 1017.0
20260506123045 11 0.0 0.0 0.00 0.00 0.00 87 1017.0
20260506122525 11 0.0 0.0 0.00 0.00 0.00 87 1016.9
20260506122025 11 0.0 0.0 0.00 0.00 0.00 87 1016.8
20260506121525 11 0.0 0.0 0.00 0.00 0.00 86 1016.7
20260506121045 11 0.0 0.0 0.00 0.00 0.00 86 1016.7
20260506120525 11 0.0 0.0 0.00 0.00 0.00 86 1016.7
20260506120025 11 0.0 0.0 0.00 0.00 0.00 86 1016.7
20260506115525 11 0.0 0.0 0.00 0.00 0.00 85 1016.7
20260506115025 11 0.0 0.0 0.00 0.00 0.00 85 1016.7
20260506114526 11 0.0 0.0 0.00 0.00 0.00 85 1016.7
20260506114025 11 0.0 0.0 0.00 0.00 0.00 85 1016.7
20260506113525 11 0.0 0.0 0.00 0.00 0.00 85 1016.7
20260506113025 11 0.0 0.0 0.00 0.00 0.00 85 1016.7
20260506112526 11 0.0 0.0 0.00 0.00 0.00 85 1016.6
20260506112025 11 0.0 0.0 0.00 0.00 0.00 85 1016.6
20260506111525 11 0.0 0.0 0.00 0.00 0.00 85 1016.6
20260506111025 11 0.0 0.0 0.00 0.00 0.00 85 1016.6
20260506110647 11 0.0 0.0 0.00 0.00 0.00 84 1016.6
20260506110026 11 0.0 0.0 0.00 0.00 0.00 84 1016.6
20260506105526 11 0.0 0.0 0.00 0.00 0.00 84 1016.6
20260506105026 11 0.0 0.0 0.00 0.00 0.00 84 1016.6
20260506104526 11 0.0 0.0 0.00 0.00 0.00 84 1016.6
20260506104148 11 0.0 0.0 0.00 0.00 0.00 83 1016.6
20260506103526 11 0.0 0.0 0.00 0.00 0.00 83 1016.6
20260506103027 11 0.0 0.0 0.00 0.00 0.00 83 1016.6
20260506102546 11 266 0.0 0.0 0.00 0.00 0.00 83 1016.6
20260506102026 11 265 0.0 1.6 0.00 0.00 0.00 83 1016.6
20260506101547 11 0.0 0.0 0.00 0.00 0.00 84 1016.7
20260506101026 11 0.0 0.0 0.00 0.00 0.00 84 1016.6
20260506100526 11 290 0.0 1.6 0.00 0.00 0.00 84 1016.6
20260506100026 11 0.0 0.0 0.00 0.00 0.00 84 1016.6
20260506095526 11 299 0.0 0.0 0.00 0.00 0.00 84 1016.5
20260506095026 11 299 0.0 0.0 0.00 0.00 0.00 84 1016.5
20260506094527 11 0.0 0.0 0.00 0.00 0.00 84 1016.6
20260506094027 11 0.0 0.0 0.00 0.00 0.00 83 1016.6
20260506093527 11 0.0 0.0 0.00 0.00 0.00 83 1016.6
20260506093027 11 0.0 0.0 0.00 0.00 0.00 82 1016.6
20260506092527 11 0.0 0.0 0.00 0.00 0.00 83 1016.6
20260506092027 11 0.0 0.0 0.00 0.00 0.00 83 1016.6
20260506091547 11 0.0 0.0 0.00 0.00 0.00 82 1016.7
20260506091027 11 0.0 0.0 0.00 0.00 0.00 82 1016.7
20260506090527 11 0.0 0.0 0.00 0.00 0.00 82 1016.8
20260506090047 11 0.0 0.0 0.00 0.00 0.00 82 1016.8
20260506085527 11 0.0 0.0 0.00 0.00 0.00 82 1016.8
20260506085027 11 0.0 0.0 0.00 0.00 0.00 81 1016.9
20260506084527 11 0.0 0.0 0.00 0.00 0.00 81 1016.9
20260506084028 11 301 0.0 1.6 0.00 0.00 0.00 81 1017.0
20260506083608 11 0.0 0.0 0.00 0.00 0.00 81 1017.0
20260506083048 11 0.0 0.0 0.00 0.00 0.00 81 1017.0
20260506082548 11 310 0.0 1.6 0.00 0.00 0.00 81 1017.0
20260506082028 11 0 0.0 1.6 0.00 0.00 0.00 81 1017.0
20260506081528 11 0.0 0.0 0.00 0.00 0.00 81 1016.9
20260506081028 11 0.0 0.0 0.00 0.00 0.00 81 1017.0
20260506080528 11 0.0 0.0 0.00 0.00 0.00 81 1017.1
20260506073029 12 0.0 0.0 0.00 0.00 0.00 80 1017.1
20260506072548 12 0.0 0.0 0.00 0.00 0.00 80 1017.1
20260506072029 12 0.0 0.0 0.00 0.00 0.00 80 1017.0
20260506071549 12 0.0 0.0 0.00 0.00 0.00 79 1016.9
20260506071029 12 0.0 0.0 0.00 0.00 0.00 79 1016.9
20260506070529 12 0.0 0.0 0.00 0.00 0.00 79 1016.8